Weather WX

World > North America > United States > North Dakota

Fessenden, North Dakota Regional Weather

Lat: 47.65N, Lon: 99.63W
Wx Zone: NDZ023
Warning FLW WEATHER ALERT - (More Info. Click Here) Warning
Feedback

Fessenden, ND Regional Weather

Expires:201907181300;;249874
ASUS43 KBIS 181210
RWRND 

NORTH DAKOTA REGIONAL WEATHER ROUNDUP
NATIONAL WEATHER SERVICE BISMARCK ND
700 AM CDT THU JUL 18 2019

NOTE: "FAIR" INDICATES FEW OR NO CLOUDS BELOW 12,000 FEET WITH NO
SIGNIFICANT WEATHER AND/OR OBSTRUCTIONS TO VISIBILITY.



NDZ022-023-025-028>030-036>039-047>053-181300-
SOUTHEAST NORTH DAKOTA
  
CITY           SKY/WX    TMP DP  RH WIND       PRES   REMARKS
FARGO          CLOUDY    66  63  90 W5        29.62F                  
6HR MIN TEMP:  66; 6HR MAX TEMP:  73; 6HR PCP:  0.07;                

JAMESTOWN      CLEAR     63  61  93 SW6       29.66S                  
$$ 

  

SKY/WX - Weather  TMP - Temperature  DP - Dew Point  RH - Relative Humidity
WIND - Wind Direction/Speed PRES - Barometric Pressure VSB - Visibility
WCI - Wind Chill Index E13G22 Wind - East Wind 13 mph/Gusts of 22 mph